Cloud_Cover
0 0 0 1 0 30 81 85 100 100 100 100 100 100 100 100 100 100 100 100 100 100 100 100 100 100 31 92 99 97 100 88 100 100 90 53 99 63 95 87 41 85 95 100 100 100 100
0 0 0 0 0 1 40 90 100 100 100 100 100 100 100 100 100 100 100 100 100 100 100 100 100 100 100 100 93 99 99 47 98 92 100 94 22 5 92 100 100 100 95 95 73 31 19
5 5 5 2 1 2 57 63 100 100 100 100 100 100 100 100 100 100 100 100 100 100 100 54 100 100 100 100 100 100 100 100 100 100 99 100 99 100 90 100 100 100 78 12 95 82 2
5 5 5 3 5 5 5 8 8 100 100 100 100 100 100 100 100 100 100 100 100 100 100 100 78 12 98 100 100 100 100 100 100 100 100 100 100 100 100 100 100 83 100 46 100 100 100
2 3 14 91 3 5 5 5 74 75 100 100 100 100 100 100 100 100 100 100 100 100 100 86 100 100 100 100 100 100 100 100 100 100 100 100 100 100 100 100 100 100 100 100 100 100 100
5 5 16 51 5 5 0 2 25 12 100 100 100 100 100 100 100 100 100 100 100 100 100 95 32 100 100 100 100 100 100 100 100 100 95 100 67 90 100 100 100 100 100 100 100 100 100
5 5 5 5 27 32 6 60 0 88 82 100 100 100 100 100 100 100 100 100 100 100 100 100 100 100 100 100 100 100 100 100 100 100 100 100 100 100 100 100 5 25 48 94 100 97 5
5 5 5 82 60 39 81 100 100 44 31 100 100 100 100 100 100 100 100 98 100 100 100 100 100 100 100 100 100 100 100 100 100 97 100 84 100 100 100 12 16 41 14 58 19 97 18
5 4 5 32 98 98 100 74 12 57 85 100 100 100 100 100 100 100 100 100 100 100 100 100 100 100 100 95 100 100 89 100 100 100 100 100 100 100 100 56 91 99 96 96 19 100 5
5 4 15 5 18 7 25 5 5 0 19 100 100 100 100 100 100 100 100 100 100 100 100 100 100 100 100 100 100 100 100 100 100 100 100 100 100 100 100 93 100 100 100 82 60 91 20
6 2 0 5 5 20 5 5 5 2 0 98 100 100 100 100 100 100 100 100 100 100 100 100 100 100 100 100 100 100 100 100 100 100 100 97 100 100 100 100 100 100 100 100 76 74 89
25 5 5 5 5 5 5 0 5 5 0 0 100 100 100 100 100 100 100 100 100 100 100 100 100 90 100 100 100 100 100 100 100 100 100 100 100 100 100 100 65 40 97 100 100 86 8
100 41 5 5 5 1 4 5 1 5 5 2 55 100 100 100 100 100 100 100 100 100 100 95 100 100 100 100 100 100 100 100 100 100 100 100 100 100 100 100 100 100 100 100 100 54 99
100 100 42 7 5 5 4 5 30 18 5 5 6 100 100 100 100 100 100 100 100 100 100 100 100 100 100 100 100 100 100 100 100 100 100 100 100 100 100 100 100 100 100 100 97 100 100
100 99 5 5 4 3 5 5 5 41 5 5 36 100 100 100 100 100 100 100 100 100 100 50 100 100 100 100 100 100 97 100 100 100 100 100 100 100 100 100 100 100 81 100 100 100 100
100 98 11 26 5 5 2 4 5 5 27 41 99 99 100 100 100 100 100 100 100 100 100 100 96 98 84 100 100 100 100 100 100 100 100 100 100 100 100 100 63 91 100 100 100 100 100
51 25 5 5 5 1 1 5 5 64 100 100 100 100 100 100 100 100 100 100 100 100 100 100 100 67 100 100 100 100 100 100 100 100 100 100 100 81 100 28 54 100 100 100 100 100 100
5 5 5 5 5 3 5 11 98 100 100 100 100 100 100 100 100 100 100 100 100 100 100 100 100 100 84 85 100 100 100 100 100 100 100 100 100 99 79 70 96 100 100 100 100 100 100
7 5 5 5 5 14 20 46 8 98 100 100 100 98 100 100 100 100 100 100 100 100 100 100 100 100 100 100 99 100 100 100 100 100 100 100 100 100 100 100 100 100 100 100 100 98 100
8 5 5 5 5 24 32 92 100 100 100 100 100 100 100 100 100 100 100 100 100 100 100 100 100 100 100 100 97 58 97 100 100 100 100 100 100 100 100 100 100 100 100 100 100 96 51
5 5 5 5 38 70 80 100 100 100 100 100 100 100 32 100 100 100 100 100 100 100 100 100 100 100 100 100 100 100 98 99 100 100 100 100 100 100 100 100 100 100 100 100 100 100 89
8 5 69 93 87 78 100 100 100 100 100 100 100 100 100 99 100 100 100 100 100 100 100 100 100 100 100 100 100 100 65 100 100 100 100 100 100 100 100 100 100 100 100 100 100 100 96
5 5 34 100 100 100 100 100 100 100 100 100 100 47 100 10 100 100 100 100 100 100 100 98 100 100 100 100 100 100 100 100 100 100 100 100 100 100 100 100 100 100 100 100 100 100 100
39 94 100 100 100 100 100 100 100 100 100 100 100 61 100 43 77 100 100 100 100 100 100 83 100 100 100 100 100 100 100 100 100 100 100 100 100 100 100 100 100 99 100 100 100 100 100
91 100 100 100 100 100 100 100 100 100 100 100 100 100 100 100 36 100 100 100 100 100 100 99 100 100 100 100 100 100 100 100 100 100 100 100 100 100 100 100 100 100 100 100 100 100 100
100 100 100 100 100 100 100 100 100 100 100 100 100 100 100 100 100 100 100 100 100 100 100 100 100 100 100 100 100 100 100 100 100 100 100 100 100 100 100 100 100 100 100 100 100 99 100
100 100 100 100 100 100 100 100 100 100 100 100 100 100 100 100 95 100 100 100 100 100 100 100 100 100 100 100 100 100 100 100 100 100 100 100 100 100 100 100 100 100 100 100 100 100 100
99 100 100 100 100 100 100 100 100 100 100 100 100 100 32 100 100 100 98 100 99 100 100 100 100 100 100 100 100 100 100 100 100 100 100 100 100 100 100 100 100 100 100 100 100 91 100
94 100 100 100 100 100 100 100 100 100 100 100 100 100 100 86 100 100 96 58 58 100 100 100 100 100 100 100 100 100 100 100 100 100 100 100 100 100 100 100 100 100 100 100 100 100 100